Simultaneous Nadir Overpasses (SNOs) Predictions

Prediction of SNOs between METOP-B and NOAA-19 Satellite Orbit:

Table of predicted SNOs for the next 14.0 days since TLE Epoch: 3/10/2017
Index Date (METOP-B) Time (METOP-B) Lat,Lon (METOP-B) SZA (METOP-B ) Date (NOAA-19) Time (NOAA-19) Lat,Lon (NOAA-19) SZA (NOAA-19 ) Distance(km) Time Diff (sec)
1 03/20/2017 14:44:51 -76.98, 142.78 103.17 03/20/2017 14:43:36 -77.00, 142.49 103.15 7.54 75
2 03/20/2017 15:35:32 76.94, -50.05 76.78 03/20/2017 15:34:41 76.92, -49.96 76.77 2.52 51
3 03/20/2017 16:26:14 -76.91, 117.19 103.26 03/20/2017 16:25:36 -76.93, 117.30 103.25 3.15 38
4 03/20/2017 17:16:54 76.92, -75.46 76.74 03/20/2017 17:16:43 76.94, -75.52 76.76 2.65 11
5 03/20/2017 18:07:36 -76.89, 91.78 103.31 03/20/2017 18:07:37 -76.90, 91.92 103.30 3.76 1
6
